K5RG-3 Weather Reports


time (UTC)temp
C
wind
direction
speed
KPH
gust
KPH
rain 1hr
cm
rain 24hr
cm
rain mn
cm
humidity
%
barometer
mb
20260508173026 20 102 9.7 20.9 0.00 0.00 0.00 94 1009.9
20260508171531 20 79 8.0 19.3 0.00 0.00 0.00 93 1009.9
20260508170018 20 82 4.8 16.1 0.00 0.00 0.00 93 1010.4
20260508164522 20 70 4.8 14.5 0.00 0.00 0.00 93 1010.7
20260508163017 20 73 9.7 19.3 0.00 0.00 0.00 92 1010.8
20260508161530 20 78 4.8 11.3 0.00 0.00 0.00 92 1011.0
20260508160019 20 93 9.7 20.9 0.00 0.00 0.00 93 1011.1
20260508154515 20 29 8.0 16.1 0.00 0.00 0.00 93 1011.3
20260508153012 20 84 6.4 12.9 0.00 0.00 0.00 93 1011.2
20260508151511 19 356 8.0 20.9 0.00 0.00 0.00 93 1010.9
20260508150018 19 48 9.7 20.9 0.00 0.00 0.00 93 1010.8
20260508144512 19 50 8.0 17.7 0.00 0.00 0.00 93 1011.0
20260508143016 19 33 3.2 12.9 0.00 0.00 0.00 93 1011.3
20260508141507 20 8 1.6 6.4 0.00 0.00 0.00 93 1011.6
20260508140004 20 56 3.2 11.3 0.00 0.00 0.00 92 1011.1
20260508134502 20 41 1.6 11.3 0.00 0.00 0.00 93 1011.2
20260508133002 20 75 0.0 11.3 0.00 0.00 0.00 93 1011.0
20260508131601 19 67 0.0 11.3 0.00 0.00 0.00 93 1011.3
20260508130057 19 66 6.4 14.5 0.00 0.00 0.00 92 1010.9
20260508124601 20 59 3.2 14.5 0.00 0.00 0.00 92 1011.0
20260508123053 20 25 4.8 16.1 0.00 0.00 0.00 92 1011.2
20260508121551 20 48 6.4 14.5 0.00 0.00 0.00 93 1011.1
20260508120050 20 77 6.4 14.5 0.00 0.00 0.00 93 1010.5
20260508114549 20 62 4.8 12.9 0.00 0.00 0.00 93 1010.5
20260508113117 20 75 4.8 14.5 0.00 0.00 0.00 93 1010.7
20260508111547 20 24 3.2 9.7 0.00 0.00 0.00 93 1011.1
20260508110047 20 62 3.2 11.3 0.00 0.00 0.00 93 1010.8
20260508104554 20 106 3.2 12.9 0.00 0.00 0.00 93 1010.1
20260508103043 20 94 3.2 16.1 0.00 0.00 0.00 92 1010.3
20260508101544 21 68 9.7 16.1 0.00 0.00 0.00 92 1010.6
20260508100040 21 79 11.3 19.3 0.00 0.00 0.00 92 1010.4
20260508094536 21 75 11.3 19.3 0.00 0.00 0.00 91 1010.7
20260508093034 22 61 6.4 12.9 0.00 0.00 0.00 91 1010.6
20260508091533 22 100 6.4 12.9 0.00 0.00 0.00 90 1010.6
20260508090039 22 74 3.2 8.0 0.00 0.00 0.00 90 1010.6
20260508084529 22 96 1.6 6.4 0.00 0.00 0.00 89 1010.5
20260508083035 22 98 1.6 11.3 0.00 0.00 0.00 88 1010.7
20260508081526 22 112 0.0 4.8 0.00 0.00 0.00 87 1010.8
20260508080029 23 135 0.0 11.3 0.00 0.00 0.00 86 1010.6
20260508074526 23 98 0.0 11.3 0.00 0.00 0.00 85 1010.5
20260508073024 23 43 1.6 11.3 0.00 0.00 0.00 85 1010.8
20260508071515 23 107 1.6 9.7 0.00 0.00 0.00 85 1011.1
20260508070010 23 87 1.6 17.7 0.00 0.00 0.00 85 1010.9
20260508064529 23 100 8.0 19.3 0.00 0.00 0.00 85 1010.8
20260508063001 23 77 1.6 16.1 0.00 0.00 0.00 85 1011.0
20260508061602 23 94 3.2 9.7 0.00 0.00 0.00 85 1011.4
20260508060055 23 86 1.6 9.7 0.00 0.00 0.00 84 1011.2
20260508054615 23 113 1.6 11.3 0.00 0.00 0.00 83 1011.1
20260508053045 23 100 0.0 17.7 0.00 0.00 0.00 83 1010.5
20260508051543 23 84 4.8 16.1 0.00 0.00 0.00 82 1010.8
20260508050038 23 116 3.2 17.7 0.00 0.00 0.00 82 1010.7
20260508044535 23 111 3.2 19.3 0.00 0.00 0.00 82 1010.6
20260508043043 23 84 8.0 12.9 0.00 0.00 0.00 82 1011.0
20260508041536 23 124 6.4 16.1 0.00 0.00 0.00 81 1011.5
20260508040041 23 86 6.4 19.3 0.00 0.00 0.00 81 1012.1
20260508034535 23 90 9.7 19.3 0.00 0.00 0.00 81 1012.2
20260508033034 23 67 4.8 12.9 0.00 0.00 0.00 81 1012.1
20260508031532 24 97 8.0 17.7 0.00 0.00 0.00 80 1011.9
20260508030033 24 75 6.4 17.7 0.00 0.00 0.00 79 1011.7
20260508024531 24 90 9.7 16.1 0.00 0.00 0.00 78 1011.7
20260508023031 24 78 6.4 14.5 0.00 0.00 0.00 78 1011.7
20260508021530 24 73 9.7 16.1 0.00 0.00 0.00 78 1011.9
20260508020030 24 79 4.8 17.7 0.00 0.00 0.00 78 1011.4
20260508014531 24 66 3.2 16.1 0.00 0.00 0.00 78 1011.8
20260508013029 24 76 4.8 16.1 0.00 0.00 0.00 78 1011.7
20260508011535 24 39 4.8 12.9 0.00 0.00 0.00 79 1011.4
20260508010032 24 69 6.4 16.1 0.00 0.00 0.00 78 1011.3
20260508004537 24 73 6.4 16.1 0.00 0.00 0.00 78 1011.2
20260508003027 25 63 3.2 14.5 0.00 0.00 0.00 78 1011.1
20260508001529 25 71 3.2 17.7 0.00 0.00 0.00 78 1011.3
20260508000026 25 23 4.8 17.7 0.00 0.00 0.00 77 1011.3
20260507234532 25 51 11.3 17.7 0.00 0.00 0.00 77 1011.0
20260507233033 25 59 12.9 19.3 0.00 0.00 0.00 77 1011.0
20260507231525 25 83 4.8 17.7 0.00 0.00 0.00 77 1011.1
20260507230025 25 99 1.6 16.1 0.00 0.00 0.00 77 1011.2
20260507224525 25 81 11.3 20.9 0.00 0.00 0.00 77 1011.2
20260507223024 25 71 12.9 20.9 0.00 0.00 0.00 76 1011.1
20260507221522 25 84 11.3 16.1 0.00 0.00 0.00 77 1011.1
20260507220021 25 76 6.4 20.9 0.00 0.00 0.00 76 1011.2
20260507214526 25 66 9.7 19.3 0.00 0.00 0.00 77 1011.0
20260507213022 25 83 4.8 25.7 0.00 0.00 0.00 76 1011.2
20260507211523 25 90 8.0 20.9 0.00 0.00 0.00 75 1011.4
20260507210021 25 119 11.3 24.1 0.00 0.00 0.00 76 1011.5
20260507204519 25 69 8.0 16.1 0.00 0.00 0.00 76 1011.9
20260507203017 25 2 3.2 14.5 0.00 0.00 0.00 77 1011.9
20260507201516 24 13 3.2 11.3 0.00 0.00 0.00 77 1012.1
20260507200008 24 346 3.2 14.5 0.00 0.00 0.00 78 1012.3
20260507194506 23 31 4.8 16.1 0.00 0.00 0.00 77 1012.5
20260507193005 23 30 3.2 16.1 0.00 0.00 0.00 79 1012.6
20260507191508 22 20 6.4 19.3 0.00 0.00 0.00 79 1012.8
20260507190005 22 329 3.2 16.1 0.00 0.00 0.00 80 1012.8
20260507184504 22 340 4.8 14.5 0.00 0.00 0.00 80 1013.1
20260507183005 21 76 6.4 14.5 0.00 0.00 0.00 80 1013.2
20260507181504 21 347 6.4 16.1 0.00 0.00 0.00 80 1013.4
20260507180003 21 342 11.3 17.7 0.00 0.00 0.00 80 1013.4
20260507174636 21 20 4.8 17.7 0.00 0.00 0.00 81 1013.6